STARLINK-1525, 46066

Orbit data source: Space-Track

STARLINK-1525, 46066 is a payload satellite owned by SpaceX/Seattle (US) in LEO that was launched on Fri, 07 Aug 2020 UTC via an FALCON 9 launch vehicle from the Air Force Eastern Test Range (AFETR). Payload-class satellites include a variety of spacecraft equipped with specific instruments for various scientific and technological missions. These include communications satellites like Starlink; space stations such as the ISS; scientific satellites like the Hubble; Earth observation satellites from companies like Planet Labs, Umbra, and HawkEye 360; GPS; miniature CubeSats for education and research; and military/defense satellites.

Loading next visibility...
Identifier
46066, 2020-055AR
Orbit
LEO
Country
Flag of USUS
Related business
Manufacturer
SpaceX/Seattle
Mission
Operational Commercial Communications
Bus & Motor
STARLINK, Unknown motor
Mass
260 kg wet, ~248 kg dry
Launch date (UTC)
2020-08-07 (5 years ago)
Launch vehicle
FALCON 9
Launch site
Air Force Eastern Test Range (AFETR)
Object type
Payload
Rocket body
Debris
Shape & HBR
Box + 1 Pan, 10.1 m
Radar Cross Section
13.562 m², Large (>1 m²)

Expand to show TLE details & history
Last TLE update: 18 hours ago

TLE from 18 hours ago
0 STARLINK-1525
1 46066U 20055AR  25290.66193764  .00000293  00000-0  38560-4 0  9994
2 46066  53.0568  18.6904 0001243  86.5185 273.5946 15.06401907287749
Epoch: 2025-10-17T15:53Z
TLE epoch observation values (Epoch: 2025-10-17T15:53:11.412Z)
Latitude
-0.00002°
Longitude
113.98874°
Altitude
548.031 km
Speed
7.589 km/s
True Right ascension
01h 14m 45s
True Declination
0° 00' 00"
Sunlit
Object was in full shadow at epoch
Visualization orbit readout
Latitude
Unknown
Longitude
Unknown
Altitude
Unknown
Speed
Unknown
Apparent Right ascension
Unknown
Apparent Declination
Unknown
Sunlit
N/A
Visualization observer readout
Local Sidereal Time
04:49:18
Azimuth
Unknown
Elevation
Unknown
Doppler factor
Unknown
Orbital elements
Apogee altitude
548.337 km
Perigee altitude
546.615 km
Semi-major axis
6,925.613 km
Eccentricity
0.00012
Inclination
53.0568°
RAAN
18.6904°
Arg. of periapsis
86.5185°
True anomaly
273.58038°
Mean anomaly
273.5946°
Eccentric anomaly
273.58749°
Mean motion
3.76579 °/min
Orbital period
95.6 mins
BSTAR
0.00003856
Loading maneuver chart data...
Computing Atmospheric mass density...
Loading historical data...
Loading historical data...
Loading historical data...
Loading historical data...
Loading historical data...
Loading historical data...
Loading historical data...

Documentation

Showing up to 5 results
|